owner,sensor,date,latitude,longitude,vertical_datum,sea_water_temperature,qcFlag
ADCP,ioos:station:wmo:42384:1,2020-04-01T00:00:00Z,29.9920,-90.3255,13.0,24.9,11111222
ADCP,ioos:station:wmo:42384:1,2020-04-01T00:10:00Z,29.9920,-90.3255,12.9,24.9,11111222
ADCP,ioos:station:wmo:42384:1,2020-04-01T00:20:00Z,29.9920,-90.3255,12.9,24.9,11111222
ADCP,ioos:station:wmo:42384:1,2020-04-01T00:30:00Z,29.9920,-90.3255,13.0,24.9,11111222
ADCP,ioos:station:wmo:42384:1,2020-04-01T00:40:00Z,29.9920,-90.3255,13.0,24.8,11111222
ADCP,ioos:station:wmo:42384:1,2020-04-01T00:50:00Z,29.9920,-90.3255,13.0,24.8,11111222
ADCP,ioos:station:wmo:42384:1,2020-04-01T01:01:00Z,29.9920,-90.3255,12.9,24.8,11111222
ADCP,ioos:station:wmo:42384:1,2020-04-01T01:11:00Z,29.9920,-90.3255,12.8,24.8,11111222
ADCP,ioos:station:wmo:42384:1,2020-04-01T01:21:00Z,29.9920,-90.3255,12.9,24.8,11111222
ADCP,ioos:station:wmo:42384:1,2020-04-01T01:31:00Z,29.9920,-90.3255,13.0,24.8,11111222
ADCP,ioos:station:wmo:42384:1,2020-04-01T01:41:00Z,29.9920,-90.3255,12.9,24.8,11111222
ADCP,ioos:station:wmo:42384:1,2020-04-01T01:51:00Z,29.9920,-90.3255,12.9,24.8,11111222
ADCP,ioos:station:wmo:42384:1,2020-04-01T02:01:00Z,29.9920,-90.3255,12.8,24.7,11111222
ADCP,ioos:station:wmo:42384:1,2020-04-01T02:11:00Z,29.9920,-90.3255,12.9,24.7,11111222
ADCP,ioos:station:wmo:42384:1,2020-04-01T02:21:00Z,29.9920,-90.3255,12.9,24.7,11111222
ADCP,ioos:station:wmo:42384:1,2020-04-01T02:31:00Z,29.9920,-90.3255,12.9,24.7,11111222
ADCP,ioos:station:wmo:42384:1,2020-04-01T02:41:00Z,29.9920,-90.3255,12.7,24.7,11111222
ADCP,ioos:station:wmo:42384:1,2020-04-01T02:51:00Z,29.9920,-90.3255,12.9,24.7,11111222
ADCP,ioos:station:wmo:42384:1,2020-04-01T03:01:00Z,29.9920,-90.3255,12.8,24.6,11111222
ADCP,ioos:station:wmo:42384:1,2020-04-01T03:11:00Z,29.9920,-90.3255,12.9,24.6,11111222
ADCP,ioos:station:wmo:42384:1,2020-04-01T03:21:00Z,29.9920,-90.3255,12.8,24.6,11111222
ADCP,ioos:station:wmo:42384:1,2020-04-01T03:31:00Z,29.9920,-90.3255,12.8,24.6,11111222
ADCP,ioos:station:wmo:42384:1,2020-04-01T03:41:00Z,29.9920,-90.3255,12.7,24.5,11111222
ADCP,ioos:station:wmo:42384:1,2020-04-01T03:51:00Z,29.9920,-90.3255,12.8,24.5,11111222
ADCP,ioos:station:wmo:42384:1,2020-04-01T04:01:00Z,29.9920,-90.3255,12.7,24.4,11111222
ADCP,ioos:station:wmo:42384:1,2020-04-01T04:11:00Z,29.9920,-90.3255,12.8,24.4,11111222
ADCP,ioos:station:wmo:42384:1,2020-04-01T04:21:00Z,29.9920,-90.3255,12.8,24.4,11111222
ADCP,ioos:station:wmo:42384:1,2020-04-01T04:31:00Z,29.9920,-90.3255,12.8,24.3,11111222
ADCP,ioos:station:wmo:42384:1,2020-04-01T04:41:00Z,29.9920,-90.3255,12.5,24.3,11111222
ADCP,ioos:station:wmo:42384:1,2020-04-01T04:51:00Z,29.9920,-90.3255,12.9,24.3,11111222
ADCP,ioos:station:wmo:42384:1,2020-04-01T05:01:00Z,29.9920,-90.3255,12.7,24.4,11111222
ADCP,ioos:station:wmo:42384:1,2020-04-01T05:11:00Z,29.9920,-90.3255,12.7,24.3,11111222
ADCP,ioos:station:wmo:42384:1,2020-04-01T05:21:00Z,29.9920,-90.3255,12.7,24.4,11111222
ADCP,ioos:station:wmo:42384:1,2020-04-01T05:31:00Z,29.9920,-90.3255,12.7,24.4,11111222
ADCP,ioos:station:wmo:42384:1,2020-04-01T05:41:00Z,29.9920,-90.3255,12.8,24.4,11111222
ADCP,ioos:station:wmo:42384:1,2020-04-01T05:51:00Z,29.9920,-90.3255,12.8,24.5,11111222
ADCP,ioos:station:wmo:42384:1,2020-04-01T06:01:00Z,29.9920,-90.3255,12.7,24.5,11111222
ADCP,ioos:station:wmo:42384:1,2020-04-01T06:11:00Z,29.9920,-90.3255,12.6,24.5,11111222
ADCP,ioos:station:wmo:42384:1,2020-04-01T06:21:00Z,29.9920,-90.3255,12.6,24.5,11111222
ADCP,ioos:station:wmo:42384:1,2020-04-01T06:31:00Z,29.9920,-90.3255,12.6,24.5,11111222
ADCP,ioos:station:wmo:42384:1,2020-04-01T06:41:00Z,29.9920,-90.3255,12.7,24.5,11111222
ADCP,ioos:station:wmo:42384:1,2020-04-01T06:51:00Z,29.9920,-90.3255,12.7,24.6,11111222
ADCP,ioos:station:wmo:42384:1,2020-04-01T07:01:00Z,29.9920,-90.3255,12.8,24.6,11111222
ADCP,ioos:station:wmo:42384:1,2020-04-01T07:11:00Z,29.9920,-90.3255,12.6,24.6,11111222
ADCP,ioos:station:wmo:42384:1,2020-04-01T07:21:00Z,29.9920,-90.3255,12.6,24.6,11111222
ADCP,ioos:station:wmo:42384:1,2020-04-01T07:31:00Z,29.9920,-90.3255,12.7,24.6,11111222
ADCP,ioos:station:wmo:42384:1,2020-04-01T07:41:00Z,29.9920,-90.3255,12.6,24.6,11111222
ADCP,ioos:station:wmo:42384:1,2020-04-01T07:51:00Z,29.9920,-90.3255,12.7,24.6,11111222
ADCP,ioos:station:wmo:42384:1,2020-04-01T08:01:00Z,29.9920,-90.3255,12.7,24.6,11111222
ADCP,ioos:station:wmo:42384:1,2020-04-01T08:11:00Z,29.9920,-90.3255,12.7,24.6,11111222
ADCP,ioos:station:wmo:42384:1,2020-04-01T08:21:00Z,29.9920,-90.3255,12.7,24.6,11111222
ADCP,ioos:station:wmo:42384:1,2020-04-01T08:31:00Z,29.9920,-90.3255,12.8,24.6,11111222
ADCP,ioos:station:wmo:42384:1,2020-04-01T08:41:00Z,29.9920,-90.3255,12.7,24.6,11111222
ADCP,ioos:station:wmo:42384:1,2020-04-01T08:51:00Z,29.9920,-90.3255,12.5,24.6,11111222
ADCP,ioos:station:wmo:42384:1,2020-04-01T09:01:00Z,29.9920,-90.3255,12.7,24.6,11111222
ADCP,ioos:station:wmo:42384:1,2020-04-01T09:11:00Z,29.9920,-90.3255,12.7,24.6,11111222
ADCP,ioos:station:wmo:42384:1,2020-04-01T09:21:00Z,29.9920,-90.3255,12.7,24.6,11111222
ADCP,ioos:station:wmo:42384:1,2020-04-01T09:31:00Z,29.9920,-90.3255,12.7,24.6,11111222
ADCP,ioos:station:wmo:42384:1,2020-04-01T09:41:00Z,29.9920,-90.3255,12.8,24.5,11111222
ADCP,ioos:station:wmo:42384:1,2020-04-01T09:51:00Z,29.9920,-90.3255,12.8,24.5,11111222
ADCP,ioos:station:wmo:42384:1,2020-04-01T10:01:00Z,29.9920,-90.3255,12.7,24.5,11111222
ADCP,ioos:station:wmo:42384:1,2020-04-01T10:11:00Z,29.9920,-90.3255,12.7,24.5,11111222
ADCP,ioos:station:wmo:42384:1,2020-04-01T10:21:00Z,29.9920,-90.3255,12.9,24.5,11111222
ADCP,ioos:station:wmo:42384:1,2020-04-01T10:31:00Z,29.9920,-90.3255,12.7,24.5,11111222
ADCP,ioos:station:wmo:42384:1,2020-04-01T10:41:00Z,29.9920,-90.3255,12.7,24.5,11111222
ADCP,ioos:station:wmo:42384:1,2020-04-01T10:51:00Z,29.9920,-90.3255,12.8,24.5,11111222
ADCP,ioos:station:wmo:42384:1,2020-04-01T11:01:00Z,29.9920,-90.3255,12.7,24.5,11111222
ADCP,ioos:station:wmo:42384:1,2020-04-01T11:11:00Z,29.9920,-90.3255,12.8,24.5,11111222
ADCP,ioos:station:wmo:42384:1,2020-04-01T11:21:00Z,29.9920,-90.3255,12.9,24.5,11111222
ADCP,ioos:station:wmo:42384:1,2020-04-01T11:31:00Z,29.9920,-90.3255,12.8,24.5,11111222
ADCP,ioos:station:wmo:42384:1,2020-04-01T11:41:00Z,29.9920,-90.3255,12.8,24.5,11111222
ADCP,ioos:station:wmo:42384:1,2020-04-01T11:51:00Z,29.9920,-90.3255,12.9,24.5,11111222
ADCP,ioos:station:wmo:42384:1,2020-04-01T12:01:00Z,29.9920,-90.3255,12.9,24.4,11111222
ADCP,ioos:station:wmo:42384:1,2020-04-01T12:11:00Z,29.9920,-90.3255,12.8,24.4,11111222
ADCP,ioos:station:wmo:42384:1,2020-04-01T12:21:00Z,29.9920,-90.3255,12.9,24.4,11111222
ADCP,ioos:station:wmo:42384:1,2020-04-01T12:31:00Z,29.9920,-90.3255,12.8,24.4,11111222
ADCP,ioos:station:wmo:42384:1,2020-04-01T12:41:00Z,29.9920,-90.3255,12.9,24.4,11111222
ADCP,ioos:station:wmo:42384:1,2020-04-01T12:51:00Z,29.9920,-90.3255,12.9,24.4,11111222
ADCP,ioos:station:wmo:42384:1,2020-04-01T13:01:00Z,29.9920,-90.3255,12.9,24.4,11111222
ADCP,ioos:station:wmo:42384:1,2020-04-01T13:11:00Z,29.9920,-90.3255,12.9,24.4,11111222
ADCP,ioos:station:wmo:42384:1,2020-04-01T13:21:00Z,29.9920,-90.3255,12.8,24.4,11111222
ADCP,ioos:station:wmo:42384:1,2020-04-01T13:31:00Z,29.9920,-90.3255,13.0,24.4,11111222
ADCP,ioos:station:wmo:42384:1,2020-04-01T13:41:00Z,29.9920,-90.3255,12.9,24.4,11111222
ADCP,ioos:station:wmo:42384:1,2020-04-01T13:51:00Z,29.9920,-90.3255,12.9,24.4,11111222
ADCP,ioos:station:wmo:42384:1,2020-04-01T14:01:00Z,29.9920,-90.3255,13.1,24.4,11111222
ADCP,ioos:station:wmo:42384:1,2020-04-01T14:11:00Z,29.9920,-90.3255,13.0,24.4,11111222
ADCP,ioos:station:wmo:42384:1,2020-04-01T14:21:00Z,29.9920,-90.3255,12.9,24.4,11111222
ADCP,ioos:station:wmo:42384:1,2020-04-01T14:31:00Z,29.9920,-90.3255,13.0,24.4,11111222
ADCP,ioos:station:wmo:42384:1,2020-04-01T14:41:00Z,29.9920,-90.3255,13.1,24.4,11111222
ADCP,ioos:station:wmo:42384:1,2020-04-01T14:51:00Z,29.9920,-90.3255,13.0,24.4,11111222
ADCP,ioos:station:wmo:42384:1,2020-04-01T15:01:00Z,29.9920,-90.3255,13.1,24.4,11111222
ADCP,ioos:station:wmo:42384:1,2020-04-01T15:11:00Z,29.9920,-90.3255,13.0,24.4,11111222
ADCP,ioos:station:wmo:42384:1,2020-04-01T15:21:00Z,29.9920,-90.3255,13.0,24.4,11111222
ADCP,ioos:station:wmo:42384:1,2020-04-01T15:31:00Z,29.9920,-90.3255,13.0,24.4,11111222
ADCP,ioos:station:wmo:42384:1,2020-04-01T15:41:00Z,29.9920,-90.3255,13.1,24.4,11111222
ADCP,ioos:station:wmo:42384:1,2020-04-01T15:51:00Z,29.9920,-90.3255,13.2,24.4,11111222
ADCP,ioos:station:wmo:42384:1,2020-04-01T16:01:00Z,29.9920,-90.3255,13.1,24.4,11111222
ADCP,ioos:station:wmo:42384:1,2020-04-01T16:11:00Z,29.9920,-90.3255,13.0,24.4,11111222
ADCP,ioos:station:wmo:42384:1,2020-04-01T16:21:00Z,29.9920,-90.3255,13.0,24.4,11111222
ADCP,ioos:station:wmo:42384:1,2020-04-01T16:31:00Z,29.9920,-90.3255,13.0,24.4,11111222
ADCP,ioos:station:wmo:42384:1,2020-04-01T16:41:00Z,29.9920,-90.3255,13.1,24.4,11111222
ADCP,ioos:station:wmo:42384:1,2020-04-01T16:51:00Z,29.9920,-90.3255,13.1,24.4,11111222
ADCP,ioos:station:wmo:42384:1,2020-04-01T17:01:00Z,29.9920,-90.3255,13.2,24.4,11111222
ADCP,ioos:station:wmo:42384:1,2020-04-01T17:11:00Z,29.9920,-90.3255,13.1,24.4,11111222
ADCP,ioos:station:wmo:42384:1,2020-04-01T17:21:00Z,29.9920,-90.3255,13.1,24.4,11111222
ADCP,ioos:station:wmo:42384:1,2020-04-01T17:31:00Z,29.9920,-90.3255,13.1,24.4,11111222
ADCP,ioos:station:wmo:42384:1,2020-04-01T17:41:00Z,29.9920,-90.3255,13.1,24.4,11111222
ADCP,ioos:station:wmo:42384:1,2020-04-01T17:51:00Z,29.9920,-90.3255,13.1,24.4,11111222
ADCP,ioos:station:wmo:42384:1,2020-04-01T18:01:00Z,29.9920,-90.3255,13.1,24.4,11111222
ADCP,ioos:station:wmo:42384:1,2020-04-01T18:12:00Z,29.9920,-90.3255,13.2,24.4,11111222
ADCP,ioos:station:wmo:42384:1,2020-04-01T18:22:00Z,29.9920,-90.3255,13.2,24.4,11111222
ADCP,ioos:station:wmo:42384:1,2020-04-01T18:32:00Z,29.9920,-90.3255,13.1,24.4,11111222
ADCP,ioos:station:wmo:42384:1,2020-04-01T18:42:00Z,29.9920,-90.3255,13.1,24.4,11111222
ADCP,ioos:station:wmo:42384:1,2020-04-01T18:52:00Z,29.9920,-90.3255,13.2,24.4,11111222
ADCP,ioos:station:wmo:42384:1,2020-04-01T19:02:00Z,29.9920,-90.3255,13.1,24.4,11111222
ADCP,ioos:station:wmo:42384:1,2020-04-01T19:12:00Z,29.9920,-90.3255,13.2,24.4,11111222
ADCP,ioos:station:wmo:42384:1,2020-04-01T19:22:00Z,29.9920,-90.3255,13.0,24.4,11111222
ADCP,ioos:station:wmo:42384:1,2020-04-01T19:32:00Z,29.9920,-90.3255,13.1,24.5,11111222
ADCP,ioos:station:wmo:42384:1,2020-04-01T19:42:00Z,29.9920,-90.3255,13.3,24.5,11111222
ADCP,ioos:station:wmo:42384:1,2020-04-01T19:52:00Z,29.9920,-90.3255,13.2,24.5,11111222
ADCP,ioos:station:wmo:42384:1,2020-04-01T20:02:00Z,29.9920,-90.3255,13.1,24.5,11111222
ADCP,ioos:station:wmo:42384:1,2020-04-01T20:12:00Z,29.9920,-90.3255,13.2,24.5,11111222
ADCP,ioos:station:wmo:42384:1,2020-04-01T20:22:00Z,29.9920,-90.3255,13.1,24.6,11111222
ADCP,ioos:station:wmo:42384:1,2020-04-01T20:32:00Z,29.9920,-90.3255,13.1,24.6,11111222
ADCP,ioos:station:wmo:42384:1,2020-04-01T20:42:00Z,29.9920,-90.3255,13.0,24.6,11111222
ADCP,ioos:station:wmo:42384:1,2020-04-01T20:52:00Z,29.9920,-90.3255,13.1,24.6,11111222
ADCP,ioos:station:wmo:42384:1,2020-04-01T21:02:00Z,29.9920,-90.3255,13.0,24.7,11111222
ADCP,ioos:station:wmo:42384:1,2020-04-01T21:12:00Z,29.9920,-90.3255,13.0,24.7,11111222
ADCP,ioos:station:wmo:42384:1,2020-04-01T21:22:00Z,29.9920,-90.3255,13.1,24.7,11111222
ADCP,ioos:station:wmo:42384:1,2020-04-01T21:32:00Z,29.9920,-90.3255,13.2,24.7,11111222
ADCP,ioos:station:wmo:42384:1,2020-04-01T21:42:00Z,29.9920,-90.3255,13.1,24.7,11111222
ADCP,ioos:station:wmo:42384:1,2020-04-01T21:52:00Z,29.9920,-90.3255,13.0,24.8,11111222
ADCP,ioos:station:wmo:42384:1,2020-04-01T22:02:00Z,29.9920,-90.3255,13.1,24.8,11111222
ADCP,ioos:station:wmo:42384:1,2020-04-01T22:12:00Z,29.9920,-90.3255,13.0,24.8,11111222
ADCP,ioos:station:wmo:42384:1,2020-04-01T22:22:00Z,29.9920,-90.3255,13.0,24.8,11111222
ADCP,ioos:station:wmo:42384:1,2020-04-01T22:32:00Z,29.9920,-90.3255,13.1,24.8,11111222
ADCP,ioos:station:wmo:42384:1,2020-04-01T22:42:00Z,29.9920,-90.3255,13.0,24.8,11111222
ADCP,ioos:station:wmo:42384:1,2020-04-01T22:52:00Z,29.9920,-90.3255,12.9,24.7,11111222
ADCP,ioos:station:wmo:42384:1,2020-04-01T23:02:00Z,29.9920,-90.3255,13.0,24.8,11111222
ADCP,ioos:station:wmo:42384:1,2020-04-01T23:12:00Z,29.9920,-90.3255,13.0,24.7,11111222
ADCP,ioos:station:wmo:42384:1,2020-04-01T23:22:00Z,29.9920,-90.3255,12.9,24.7,11111222
ADCP,ioos:station:wmo:42384:1,2020-04-01T23:32:00Z,29.9920,-90.3255,13.0,24.8,11111222
ADCP,ioos:station:wmo:42384:1,2020-04-01T23:42:00Z,29.9920,-90.3255,12.9,24.8,11111222
ADCP,ioos:station:wmo:42384:1,2020-04-01T23:52:00Z,29.9920,-90.3255,12.9,24.7,11111222
ADCP,ioos:station:wmo:42384:1,2020-04-02T00:02:00Z,29.9920,-90.3255,13.0,24.7,11111222
ADCP,ioos:station:wmo:42384:1,2020-04-02T00:12:00Z,29.9920,-90.3255,13.0,24.7,11111222
ADCP,ioos:station:wmo:42384:1,2020-04-02T00:22:00Z,29.9920,-90.3255,12.9,24.7,11111222
ADCP,ioos:station:wmo:42384:1,2020-04-02T00:32:00Z,29.9920,-90.3255,12.9,24.7,11111222
ADCP,ioos:station:wmo:42384:1,2020-04-02T00:42:00Z,29.9920,-90.3255,12.8,24.7,11111222
ADCP,ioos:station:wmo:42384:1,2020-04-02T00:52:00Z,29.9920,-90.3255,12.8,24.6,11111222
ADCP,ioos:station:wmo:42384:1,2020-04-02T01:02:00Z,29.9920,-90.3255,12.8,24.6,11111222
ADCP,ioos:station:wmo:42384:1,2020-04-02T01:12:00Z,29.9920,-90.3255,12.8,24.6,11111222
ADCP,ioos:station:wmo:42384:1,2020-04-02T01:22:00Z,29.9920,-90.3255,12.8,24.6,11111222
ADCP,ioos:station:wmo:42384:1,2020-04-02T01:32:00Z,29.9920,-90.3255,12.8,24.6,11111222
ADCP,ioos:station:wmo:42384:1,2020-04-02T01:42:00Z,29.9920,-90.3255,12.8,24.6,11111222
ADCP,ioos:station:wmo:42384:1,2020-04-02T01:52:00Z,29.9920,-90.3255,12.8,24.6,11111222
ADCP,ioos:station:wmo:42384:1,2020-04-02T02:02:00Z,29.9920,-90.3255,12.9,24.6,11111222
ADCP,ioos:station:wmo:42384:1,2020-04-02T02:12:00Z,29.9920,-90.3255,12.8,24.6,11111222
ADCP,ioos:station:wmo:42384:1,2020-04-02T02:22:00Z,29.9920,-90.3255,12.8,24.6,11111222
ADCP,ioos:station:wmo:42384:1,2020-04-02T02:32:00Z,29.9920,-90.3255,12.8,24.5,11111222
ADCP,ioos:station:wmo:42384:1,2020-04-02T02:42:00Z,29.9920,-90.3255,12.7,24.5,11111222
ADCP,ioos:station:wmo:42384:1,2020-04-02T02:52:00Z,29.9920,-90.3255,12.7,24.5,11111222
ADCP,ioos:station:wmo:42384:1,2020-04-02T03:02:00Z,29.9920,-90.3255,12.7,24.5,11111222
ADCP,ioos:station:wmo:42384:1,2020-04-02T03:12:00Z,29.9920,-90.3255,12.6,24.4,11111222
ADCP,ioos:station:wmo:42384:1,2020-04-02T03:22:00Z,29.9920,-90.3255,13.0,24.4,11111222
ADCP,ioos:station:wmo:42384:1,2020-04-02T03:32:00Z,29.9920,-90.3255,12.7,24.4,11111222
ADCP,ioos:station:wmo:42384:1,2020-04-02T03:42:00Z,29.9920,-90.3255,12.9,24.4,11111222
ADCP,ioos:station:wmo:42384:1,2020-04-02T03:52:00Z,29.9920,-90.3255,12.7,24.4,11111222
ADCP,ioos:station:wmo:42384:1,2020-04-02T04:02:00Z,29.9920,-90.3255,12.8,24.4,11111222
ADCP,ioos:station:wmo:42384:1,2020-04-02T04:12:00Z,29.9920,-90.3255,12.6,24.4,11111222
ADCP,ioos:station:wmo:42384:1,2020-04-02T04:22:00Z,29.9920,-90.3255,12.7,24.4,11111222
ADCP,ioos:station:wmo:42384:1,2020-04-02T04:32:00Z,29.9920,-90.3255,12.6,24.4,11111222
ADCP,ioos:station:wmo:42384:1,2020-04-02T04:42:00Z,29.9920,-90.3255,12.7,24.3,11111222
ADCP,ioos:station:wmo:42384:1,2020-04-02T04:52:00Z,29.9920,-90.3255,12.7,24.3,11111222
ADCP,ioos:station:wmo:42384:1,2020-04-02T05:02:00Z,29.9920,-90.3255,12.6,24.3,11111222
ADCP,ioos:station:wmo:42384:1,2020-04-02T05:12:00Z,29.9920,-90.3255,12.6,24.3,11111222
ADCP,ioos:station:wmo:42384:1,2020-04-02T05:22:00Z,29.9920,-90.3255,12.7,24.3,11111222
ADCP,ioos:station:wmo:42384:1,2020-04-02T05:32:00Z,29.9920,-90.3255,12.5,24.3,11111222
ADCP,ioos:station:wmo:42384:1,2020-04-02T05:42:00Z,29.9920,-90.3255,12.6,24.3,11111222
ADCP,ioos:station:wmo:42384:1,2020-04-02T05:52:00Z,29.9920,-90.3255,12.7,24.3,11111222
ADCP,ioos:station:wmo:42384:1,2020-04-02T06:02:00Z,29.9920,-90.3255,12.6,24.3,11111222
ADCP,ioos:station:wmo:42384:1,2020-04-02T06:12:00Z,29.9920,-90.3255,12.7,24.3,11111222
ADCP,ioos:station:wmo:42384:1,2020-04-02T06:22:00Z,29.9920,-90.3255,12.6,24.3,11111222
ADCP,ioos:station:wmo:42384:1,2020-04-02T06:32:00Z,29.9920,-90.3255,12.7,24.3,11111222
ADCP,ioos:station:wmo:42384:1,2020-04-02T06:42:00Z,29.9920,-90.3255,12.6,24.3,11111222
ADCP,ioos:station:wmo:42384:1,2020-04-02T06:52:00Z,29.9920,-90.3255,12.5,24.2,11111222
ADCP,ioos:station:wmo:42384:1,2020-04-02T07:02:00Z,29.9920,-90.3255,12.6,24.1,11111222
ADCP,ioos:station:wmo:42384:1,2020-04-02T07:12:00Z,29.9920,-90.3255,12.6,24.1,11111222
ADCP,ioos:station:wmo:42384:1,2020-04-02T07:22:00Z,29.9920,-90.3255,12.6,24.0,11111222
ADCP,ioos:station:wmo:42384:1,2020-04-02T07:32:00Z,29.9920,-90.3255,12.7,24.0,11111222
ADCP,ioos:station:wmo:42384:1,2020-04-02T07:42:00Z,29.9920,-90.3255,12.7,24.1,11111222
ADCP,ioos:station:wmo:42384:1,2020-04-02T07:52:00Z,29.9920,-90.3255,12.7,24.1,11111222
ADCP,ioos:station:wmo:42384:1,2020-04-02T08:02:00Z,29.9920,-90.3255,12.7,24.0,11111222
ADCP,ioos:station:wmo:42384:1,2020-04-02T08:12:00Z,29.9920,-90.3255,12.7,23.9,11111222
ADCP,ioos:station:wmo:42384:1,2020-04-02T08:22:00Z,29.9920,-90.3255,12.6,23.8,11111222
ADCP,ioos:station:wmo:42384:1,2020-04-02T08:32:00Z,29.9920,-90.3255,12.7,23.7,11111222
ADCP,ioos:station:wmo:42384:1,2020-04-02T08:42:00Z,29.9920,-90.3255,12.7,23.7,11111222
ADCP,ioos:station:wmo:42384:1,2020-04-02T08:52:00Z,29.9920,-90.3255,12.8,23.8,11111222
ADCP,ioos:station:wmo:42384:1,2020-04-02T09:02:00Z,29.9920,-90.3255,12.6,23.8,11111222
ADCP,ioos:station:wmo:42384:1,2020-04-02T09:12:00Z,29.9920,-90.3255,12.7,23.8,11111222
ADCP,ioos:station:wmo:42384:1,2020-04-02T09:22:00Z,29.9920,-90.3255,12.8,24.0,11111222
ADCP,ioos:station:wmo:42384:1,2020-04-02T09:32:00Z,29.9920,-90.3255,12.8,24.0,11111222
ADCP,ioos:station:wmo:42384:1,2020-04-02T09:42:00Z,29.9920,-90.3255,12.7,24.1,11111222
ADCP,ioos:station:wmo:42384:1,2020-04-02T09:52:00Z,29.9920,-90.3255,12.7,24.1,11111222
ADCP,ioos:station:wmo:42384:1,2020-04-02T10:02:00Z,29.9920,-90.3255,12.7,24.2,11111222
ADCP,ioos:station:wmo:42384:1,2020-04-02T10:12:00Z,29.9920,-90.3255,12.8,24.2,11111222
ADCP,ioos:station:wmo:42384:1,2020-04-02T10:22:00Z,29.9920,-90.3255,12.7,24.3,11111222
ADCP,ioos:station:wmo:42384:1,2020-04-02T10:32:00Z,29.9920,-90.3255,12.8,24.3,11111222
ADCP,ioos:station:wmo:42384:1,2020-04-02T10:42:00Z,29.9920,-90.3255,12.8,24.3,11111222
ADCP,ioos:station:wmo:42384:1,2020-04-02T10:52:00Z,29.9920,-90.3255,12.7,24.3,11111222
ADCP,ioos:station:wmo:42384:1,2020-04-02T11:02:00Z,29.9920,-90.3255,12.8,24.3,11111222
ADCP,ioos:station:wmo:42384:1,2020-04-02T11:12:00Z,29.9920,-90.3255,12.8,24.3,11111222
ADCP,ioos:station:wmo:42384:1,2020-04-02T11:23:00Z,29.9920,-90.3255,12.8,24.3,11111222
ADCP,ioos:station:wmo:42384:1,2020-04-02T11:33:00Z,29.9920,-90.3255,12.9,24.3,11111222
ADCP,ioos:station:wmo:42384:1,2020-04-02T11:43:00Z,29.9920,-90.3255,12.9,24.3,11111222
ADCP,ioos:station:wmo:42384:1,2020-04-02T11:53:00Z,29.9920,-90.3255,12.9,24.3,11111222
ADCP,ioos:station:wmo:42384:1,2020-04-02T12:03:00Z,29.9920,-90.3255,12.9,24.3,11111222
ADCP,ioos:station:wmo:42384:1,2020-04-02T12:13:00Z,29.9920,-90.3255,13.0,24.3,11111222
ADCP,ioos:station:wmo:42384:1,2020-04-02T12:23:00Z,29.9920,-90.3255,12.9,24.2,11111222
ADCP,ioos:station:wmo:42384:1,2020-04-02T12:33:00Z,29.9920,-90.3255,13.0,24.2,11111222
ADCP,ioos:station:wmo:42384:1,2020-04-02T12:43:00Z,29.9920,-90.3255,12.8,24.3,11111222
ADCP,ioos:station:wmo:42384:1,2020-04-02T12:53:00Z,29.9920,-90.3255,13.0,24.3,11111222
ADCP,ioos:station:wmo:42384:1,2020-04-02T13:03:00Z,29.9920,-90.3255,13.0,24.3,11111222
ADCP,ioos:station:wmo:42384:1,2020-04-02T13:13:00Z,29.9920,-90.3255,13.0,24.3,11111222
ADCP,ioos:station:wmo:42384:1,2020-04-02T13:23:00Z,29.9920,-90.3255,13.0,24.3,11111222
ADCP,ioos:station:wmo:42384:1,2020-04-02T13:33:00Z,29.9920,-90.3255,13.0,24.3,11111222
ADCP,ioos:station:wmo:42384:1,2020-04-02T13:43:00Z,29.9920,-90.3255,12.9,24.3,11111222
ADCP,ioos:station:wmo:42384:1,2020-04-02T13:53:00Z,29.9920,-90.3255,13.0,24.3,11111222
ADCP,ioos:station:wmo:42384:1,2020-04-02T14:03:00Z,29.9920,-90.3255,13.0,24.3,11111222
ADCP,ioos:station:wmo:42384:1,2020-04-02T14:13:00Z,29.9920,-90.3255,13.1,24.3,11111222
ADCP,ioos:station:wmo:42384:1,2020-04-02T14:23:00Z,29.9920,-90.3255,13.0,24.3,11111222
ADCP,ioos:station:wmo:42384:1,2020-04-02T14:33:00Z,29.9920,-90.3255,13.0,24.3,11111222
ADCP,ioos:station:wmo:42384:1,2020-04-02T14:43:00Z,29.9920,-90.3255,13.1,24.3,11111222
ADCP,ioos:station:wmo:42384:1,2020-04-02T14:53:00Z,29.9920,-90.3255,13.0,24.3,11111222
ADCP,ioos:station:wmo:42384:1,2020-04-02T15:03:00Z,29.9920,-90.3255,13.0,24.3,11111222
ADCP,ioos:station:wmo:42384:1,2020-04-02T15:13:00Z,29.9920,-90.3255,12.9,24.2,11111222
ADCP,ioos:station:wmo:42384:1,2020-04-02T15:23:00Z,29.9920,-90.3255,13.1,24.2,11111222
ADCP,ioos:station:wmo:42384:1,2020-04-02T15:33:00Z,29.9920,-90.3255,13.2,24.2,11111222
ADCP,ioos:station:wmo:42384:1,2020-04-02T15:43:00Z,29.9920,-90.3255,13.2,24.2,11111222
ADCP,ioos:station:wmo:42384:1,2020-04-02T15:53:00Z,29.9920,-90.3255,13.3,24.3,11111222
ADCP,ioos:station:wmo:42384:1,2020-04-02T16:03:00Z,29.9920,-90.3255,13.1,24.3,11111222
ADCP,ioos:station:wmo:42384:1,2020-04-02T16:13:00Z,29.9920,-90.3255,13.1,24.3,11111222
ADCP,ioos:station:wmo:42384:1,2020-04-02T16:23:00Z,29.9920,-90.3255,13.1,24.3,11111222
ADCP,ioos:station:wmo:42384:1,2020-04-02T16:33:00Z,29.9920,-90.3255,13.2,24.3,11111222
ADCP,ioos:station:wmo:42384:1,2020-04-02T16:43:00Z,29.9920,-90.3255,13.2,24.3,11111222
ADCP,ioos:station:wmo:42384:1,2020-04-02T16:53:00Z,29.9920,-90.3255,13.1,24.3,11111222
ADCP,ioos:station:wmo:42384:1,2020-04-02T17:03:00Z,29.9920,-90.3255,13.1,24.3,11111222
ADCP,ioos:station:wmo:42384:1,2020-04-02T17:13:00Z,29.9920,-90.3255,13.2,24.3,11111222
ADCP,ioos:station:wmo:42384:1,2020-04-02T17:23:00Z,29.9920,-90.3255,13.2,24.3,11111222
ADCP,ioos:station:wmo:42384:1,2020-04-02T17:33:00Z,29.9920,-90.3255,13.2,24.3,11111222
ADCP,ioos:station:wmo:42384:1,2020-04-02T17:43:00Z,29.9920,-90.3255,13.1,24.3,11111222
ADCP,ioos:station:wmo:42384:1,2020-04-02T17:53:00Z,29.9920,-90.3255,13.2,24.3,11111222
ADCP,ioos:station:wmo:42384:1,2020-04-02T18:03:00Z,29.9920,-90.3255,13.2,24.3,11111222
ADCP,ioos:station:wmo:42384:1,2020-04-02T18:13:00Z,29.9920,-90.3255,13.2,24.3,11111222
ADCP,ioos:station:wmo:42384:1,2020-04-02T18:23:00Z,29.9920,-90.3255,13.2,24.3,11111222
ADCP,ioos:station:wmo:42384:1,2020-04-02T18:33:00Z,29.9920,-90.3255,13.2,24.3,11111222
ADCP,ioos:station:wmo:42384:1,2020-04-02T18:43:00Z,29.9920,-90.3255,13.2,24.3,11111222
ADCP,ioos:station:wmo:42384:1,2020-04-02T18:53:00Z,29.9920,-90.3255,13.3,24.3,11111222
ADCP,ioos:station:wmo:42384:1,2020-04-02T19:03:00Z,29.9920,-90.3255,13.2,24.3,11111222
ADCP,ioos:station:wmo:42384:1,2020-04-02T19:13:00Z,29.9920,-90.3255,13.2,24.3,11111222
ADCP,ioos:station:wmo:42384:1,2020-04-02T19:23:00Z,29.9920,-90.3255,13.2,24.3,11111222
ADCP,ioos:station:wmo:42384:1,2020-04-02T19:33:00Z,29.9920,-90.3255,13.3,24.3,11111222
ADCP,ioos:station:wmo:42384:1,2020-04-02T19:43:00Z,29.9920,-90.3255,13.2,24.3,11111222
ADCP,ioos:station:wmo:42384:1,2020-04-02T19:53:00Z,29.9920,-90.3255,13.3,24.3,11111222
ADCP,ioos:station:wmo:42384:1,2020-04-02T20:03:00Z,29.9920,-90.3255,13.2,24.2,11111222
ADCP,ioos:station:wmo:42384:1,2020-04-02T20:13:00Z,29.9920,-90.3255,13.2,24.3,11111222
ADCP,ioos:station:wmo:42384:1,2020-04-02T20:23:00Z,29.9920,-90.3255,13.2,24.3,11111222
ADCP,ioos:station:wmo:42384:1,2020-04-02T20:33:00Z,29.9920,-90.3255,13.3,24.3,11111222
ADCP,ioos:station:wmo:42384:1,2020-04-02T20:43:00Z,29.9920,-90.3255,13.1,24.3,11111222
ADCP,ioos:station:wmo:42384:1,2020-04-02T20:53:00Z,29.9920,-90.3255,13.0,24.2,11111222
ADCP,ioos:station:wmo:42384:1,2020-04-02T21:03:00Z,29.9920,-90.3255,13.2,24.2,11111222